This demonstration page uses our WeatherBlox Daily Observations layout. Learn more.

Left ArrowRight Arrow

30.00354, -91.81873

Hourly Observations for September 1, 2022

Temp ( °F °C ) Dew Point ( °F °C ) Humidity (%) Winds ( mph kmh ) Pressure ( in mb ) Visibility ( mi km ) Precip ( " mm )
12:53 am 00:53 Clear 80 26.7 74 23.3 82 82 NNE 3 6 29.97 1015 10 16 0.00 0.00
1:53 am 01:53 Clear 79 26.1 74 23.3 85 85 NNW 3 6 29.96 1015 10 16 0.00 0.00
2:53 am 02:53 Clear 79 26.1 74 23.3 85 85 NNE 6 9 29.95 1014 10 16 0.00 0.00
3:53 am 03:53 Clear 78 25.6 73 22.8 85 85 NNE 6 9 29.96 1014 10 16 0.00 0.00
4:53 am 04:53 Clear 77 25 73 22.8 88 88 Calm 29.95 1014 10 16 0.00 0.00
5:53 am 05:53 Clear 77 25 73 22.8 88 88 NW 5 7 29.95 1014 10 16 0.00 0.00
6:53 am 06:53 Sunny 76 24.4 73 22.8 91 91 undefined N/A 29.96 1015 10 16 0.00 0.00
7:53 am 07:53 Sunny 78 25.6 75 23.9 90 90 Calm 29.99 1016 10 16 0.00 0.00
8:53 am 08:53 Sunny 84 28.9 75 23.9 74 74 ENE 6 9 29.99 1016 10 16 0.00 0.00
9:53 am 09:53 Sunny 87 30.6 75 23.9 68 68 E 5 7 30.00 1016 10 16 0.00 0.00
10:53 am 10:53 Sunny 90 32.2 74 23.3 59 59 VRB 5 7 30.00 1016 10 16 0.00 0.00
11:53 am 11:53 Sunny 92 33.3 75 23.9 58 58 NNE 5 7 29.99 1016 10 16 0.00 0.00
12:53 pm 12:53 Sunny 94 34.4 72 22.2 49 49 undefined N/A 29.97 1015 10 16 0.00 0.00
1:53 pm 13:53 Sunny 95 35 72 22.2 48 48 Calm 29.95 1014 10 16 0.00 0.00
2:53 pm 14:53 Mostly Sunny 95 35 72 22.2 48 48 ENE 7 11 29.93 1013 10 16 0.00 0.00
3:53 pm 15:53 Mostly Sunny 92 33.3 69 20.6 47 47 ENE 7 11 29.89 1012 10 16 0.00 0.00
4:53 pm 16:53 Sunny 91 32.8 72 22.2 54 54 ESE 3 6 29.89 1012 10 16 0.00 0.00
5:53 pm 17:53 Mostly Cloudy 90 32.2 74 23.3 59 59 Calm 29.87 1012 10 16 0.00 0.00
6:53 pm 18:53 Mostly Cloudy 86 30 76 24.4 72 72 Calm 29.90 1012 10 16 0.00 0.00
7:53 pm 19:53 Clear 82 27.8 75 23.9 79 79 SSW 3 6 29.89 1012 10 16 0.00 0.00
8:53 pm 20:53 Mostly Clear 80 26.7 75 23.9 85 85 SSW 3 6 29.92 1013 10 16 0.00 0.00
9:53 pm 21:53 Partly Cloudy 81 27.2 74 23.3 79 79 Calm 29.94 1014 10 16 0.00 0.00
10:53 pm 22:53 Clear 79 26.1 74 23.3 85 85 W 6 9 29.95 1014 10 16 0.00 0.00
11:53 pm 23:53 Clear 77 25 74 23.3 90 90 SE 5 7 29.95 1014 10 16 0.00 0.00

Powered by AerisWeather